Flag for Isle of Man Weather past 2 weeks in Douglas, Isle of Man

Now
50 °F

Passing clouds.


Feels Like: 45 °F
Forecast: 48 / 55 °F
Wind: 13 mph from East

Location: Isle Of Man / Ronaldsway Airport


UV Index: 0 (Low)

Visibility: N/A


Pressure: 29.98 "Hg

Humidity: 88%

Dew point: 46 °F

Location of DouglasLocation

Historic Weather in Douglas

°F

Douglas temperature yesterday

Maximum temperature yesterday: 54 °F (at 10:50 AM)
Minimum temperature yesterday: 46 °F (at 6:20 AM)
Average temperature yesterday: 51 °F

Past Weeks' High & Low Weather Summary

 TemperatureHumidityPressure
High64 °F (Apr 21, 2:50 PM)100% (Apr 11, 4:50 AM)30.39 "Hg (Apr 11, 4:50 AM)
Low39 °F (Apr 11, 4:50 AM)47% (Apr 14, 3:20 PM)29.71 "Hg (Apr 22, 1:50 PM)
Average50 °F78%30.07 "Hg
* Reported Apr 10 5:20 AM — Apr 25 5:20 AM, Douglas, Weather by CustomWeather, © 2014

Note: Actual official high and low records may vary slightly from our data, if they occured in-between our weather recording intervals... More about our weather records

Advertising

Historic Weather Conditions — Data for Previous 24 hours

 ConditionsComfort  
Time TempWeatherWind HumidityBarometerVisibility
5:20 AM
Apr 25
50 °FPassing clouds.12 mph88%29.98 "HgN/A
4:50 AM50 °FClear.13 mph88%29.98 "Hg10 mi
3:50 AM50 °FClear.13 mph88%30.01 "Hg10 mi
2:50 AM52 °FPassing clouds.14 mph77%30.01 "HgN/A
1:50 AM50 °FClear.12 mph82%30.04 "Hg10 mi
12:50 AM50 °FClear.8 mph76%30.04 "Hg10 mi
11:50 PM
Apr 24
48 °FPassing clouds.8 mph66%30.04 "HgN/A
10:50 PM46 °FPassing clouds.5 mph82%30.07 "HgN/A
9:50 PM48 °FPassing clouds.5 mph87%30.07 "HgN/A
8:50 PM50 °FSunny.3 mph76%30.07 "Hg10 mi
8:20 PM52 °FSunny.3 mph77%30.07 "Hg10 mi
7:50 PM52 °FSunny.3 mph77%30.07 "Hg10 mi
7:20 PM50 °FSunny.2 mph88%30.07 "Hg10 mi
6:50 PM52 °FPassing clouds.3 mph82%30.07 "HgN/A
6:20 PM52 °FPassing clouds.6 mph82%30.07 "HgN/A
5:50 PM52 °FPassing clouds.7 mph82%30.07 "HgN/A
5:20 PM54 °FPassing clouds.5 mph77%30.07 "HgN/A
4:50 PM54 °FPassing clouds.6 mph77%30.09 "HgN/A
4:20 PM54 °FPassing clouds.5 mph77%30.09 "HgN/A
3:50 PM54 °FPassing clouds.5 mph77%30.09 "HgN/A
3:20 PM54 °FPassing clouds.8 mph77%30.09 "HgN/A
2:50 PM52 °FPassing clouds.7 mph82%30.09 "HgN/A
2:20 PM52 °FPassing clouds.8 mph88%30.09 "HgN/A
1:50 PM54 °FPassing clouds.6 mph82%30.09 "HgN/A
1:20 PM54 °FPassing clouds.7 mph77%30.09 "HgN/A
12:50 PM54 °FPassing clouds.8 mph88%30.09 "HgN/A
12:20 PM52 °FPassing clouds.9 mph94%30.09 "HgN/A
11:50 AM54 °FPassing clouds.9 mph88%30.09 "HgN/A
11:20 AM52 °FScattered clouds.9 mph94%30.09 "HgN/A
10:50 AM54 °FPartly sunny.10 mph88%30.09 "HgN/A
10:20 AM52 °FScattered clouds.10 mph94%30.09 "HgN/A
9:50 AM52 °FScattered clouds.10 mph94%30.09 "HgN/A
9:20 AM50 °FScattered clouds.8 mph94%30.09 "HgN/A
8:50 AM50 °FScattered clouds.8 mph94%30.09 "HgN/A
8:20 AM52 °FScattered clouds.8 mph94%30.07 "HgN/A
7:50 AM50 °FScattered clouds.7 mph94%30.07 "HgN/A
7:20 AM48 °FScattered clouds.7 mph100%30.07 "HgN/A
Weather by CustomWeather, © 2014

See weather overview